Location: Arcabell
(42.4308°N, 1.4823°E)
Time: 23:09:03
(UTC+00:00)

deb r/b Ablestar - Visible Passes

Search period start: 13 January 2026 00:00
Search period end: 23 January 2026 00:00
Orbit: 810 x 896 km, 66.7° (Epoch: 13 January)

Date Brightness Start Highest point End Pass type
(mag) Time Alt. Az. Time Alt. Az. Time Alt. Az.
13 Jan ? 05:28:51 10° S 05:34:18 42° ESE 05:39:40 10° NE visible
14 Jan ? 05:16:58 10° S 05:22:28 44° ESE 05:27:51 10° NE visible
15 Jan ? 05:05:07 10° S 05:10:37 46° ESE 05:16:03 10° NE visible
16 Jan ? 04:53:14 10° S 04:58:47 47° ESE 05:04:14 10° NE visible
16 Jan ? 06:38:43 10° WSW 06:43:47 31° NW 06:48:48 10° NNE visible
17 Jan ? 04:41:33 11° S 04:46:57 49° ESE 04:52:26 10° NE visible
17 Jan ? 06:26:57 10° WSW 06:31:59 30° NW 06:36:56 10° NNE visible
18 Jan ? 04:32:46 32° S 04:35:06 51° ESE 04:40:37 10° NE visible
18 Jan ? 06:15:12 10° WSW 06:20:10 29° NW 06:25:04 10° NNE visible
19 Jan ? 04:22:55 52° SE 04:23:16 53° ESE 04:28:47 10° NE visible
19 Jan ? 06:05:03 17° W 06:08:21 28° NW 06:13:13 10° NNE visible
20 Jan ? 04:12:35 47° ENE 04:12:35 47° ENE 04:16:58 10° NE visible
20 Jan ? 05:54:41 23° WNW 05:56:33 27° NW 06:01:21 10° NNE visible
21 Jan ? 04:01:55 34° NE 04:01:55 34° NE 04:05:09 10° NE visible
21 Jan ? 05:44:01 26° WNW 05:44:44 27° NW 05:49:29 10° N visible
22 Jan ? 03:51:03 25° NE 03:51:03 25° NE 03:53:19 10° NE visible
22 Jan ? 05:33:07 26° NW 05:33:07 26° NW 05:37:36 10° N visible
